ONDOSAT-OWL-5

operational
NORAD ID: 62396 Int'l Des: NNA 2024-247 Owner: ONDO Country: MN
LEOCIRCULAR

About ONDOSAT-OWL-5

Description loading...

Live Position

Loading 3D Globe...

Upcoming Passes

Altitude History

Altitude vs Time

uPlot chart will show altitude changes over time

Two-Line Element Set

1 62396U 24247V 26062.17232546 .00041027 00000-0 88755-3 0 9991
2 62396 44.9943 126.9045 0009272 335.8967 24.1487 15.43821659 67046
Epoch: Mar 3, 2026 • Age: 22 hours

Current Status

Altitude 444.1 km
Velocity 7.64 km/s
Sub-Earth Point -22.98°S, 166.11°W
Launch Date Dec 21, 2024
Age 1.1 years
Type other

Technical Details

Classification Payload
Mass 0.25 kg
Dry Mass 0.25 kg
Total Mass 0.25 kg
Length 0.05 m
Diameter 0.05 m
Span 0.05 m
Shape Box
Manufacturer ONDO
Bus Type Cubesat 0.5U
Phase Status In Orbit
Owner/State ONDO/MN

Large Constellations

Loading constellations...